Flag for Switzerland Weather past 2 weeks in Yverdon-les-Bains, Vaud, Switzerland

Now
60 °F

Cool.


Feels Like: 60 °F
Forecast: 50 / 82 °F
Wind: 1 mph from Southwest

Location: Payerne

Current Time: Aug 1, 2015 at 4:34:04 AM

Latest Report: Aug 1, 2015 at 3:00 AM


Visibility: N/A

Pressure: 29.89 "Hg

Humidity: 76%

Dew point: 52 °F

Location of Yverdon-les-BainsLocation

Historic Weather in Yverdon-les-Bains — Graph

°F

Yverdon-les-Bains temperature yesterday

Maximum temperature yesterday: 74 °F (at 4:00 PM)
Minimum temperature yesterday: 48 °F (at 6:00 AM)
Average temperature yesterday: 63 °F

Past Weeks' High & Low Weather Summary

 TemperatureHumidityPressure
High92 °F (Jul 21, 5:00 PM)97% (Jul 30, 7:00 AM)30.17 "Hg (Jul 30, 7:00 AM)
Low48 °F (Jul 31, 6:00 AM)28% (Jul 17, 2:00 PM)29.64 "Hg (Jul 24, 7:00 PM)
Average70 °F63%29.93 "Hg
* Reported Jul 17 3:00 AM — Aug 1 3:00 AM, Yverdon-les-Bains, Weather by CustomWeather, © 2015

Note: Actual official high and low records may vary slightly from our data, if they occured in-between our weather recording intervals... More about our weather records

Advertising

Yverdon-les-Bains weather history for previous 24 hours

 ConditionsComfort  
Time TempWeatherWind HumidityBarometerVisibility
3:00 AM
Sat, Aug 1
60 °FCool.1 mph76%29.89 "HgN/A
2:00 AM61 °FPassing clouds.3 mph70%29.90 "Hg14 mi
1:00 AM61 °FCool.5 mph71%29.91 "HgN/A
12:00 AM60 °FCool.2 mph76%29.91 "HgN/A
10:00 PM
Fri, Jul 31
66 °FMild.No wind59%29.88 "HgN/A
9:00 PM69 °FMild.2 mph48%29.86 "HgN/A
8:00 PM70 °FOvercast.5 mph45%29.85 "Hg14 mi
7:00 PM71 °FMild.6 mph44%29.84 "HgN/A
6:00 PM73 °FMild.8 mph40%29.85 "HgN/A
5:00 PM73 °FMild.9 mph40%29.85 "HgN/A
4:00 PM74 °FMild.9 mph39%29.85 "HgN/A
3:00 PM73 °FMild.12 mph42%29.88 "HgN/A
2:00 PM72 °FPartly sunny.10 mph43%29.89 "Hg14 mi
1:00 PM69 °FMild.8 mph46%29.92 "HgN/A
12:00 PM67 °FMild.9 mph50%29.93 "HgN/A
11:00 AM65 °FPartly sunny.9 mph55%29.95 "Hg16 mi
10:00 AM62 °FMild.9 mph58%29.97 "HgN/A
9:00 AM58 °FCool.8 mph62%30.00 "HgN/A
8:00 AM55 °FPassing clouds.5 mph72%30.03 "Hg17 mi
7:00 AM49 °FCool.1 mph83%30.04 "HgN/A
6:00 AM48 °FCool.1 mph85%30.05 "HgN/A
4:00 AM50 °FCool.1 mph82%30.05 "HgN/A
Weather by CustomWeather, © 2015

See weather overviewHow to use our weather pages